Hourly Data Report for October 14, 2016

All times are specified in Local Standard Time (LST). Add 1 hour to adjust for Daylight Saving Time where and when it is observed.

RANKIN INLET A
NUNAVUT

62°48'38.000" N
92°06'53.000" W
32.30 m
2303405
71083
YRT

Download Data

Hourly Data (October 2016)
Hourly Data Report for October 14, 2016
Temp Definition
°C
Dew Point Temp Definition
°C
Rel Hum Definition
%
Wind Dir Definition
10's deg

Wind Spd Definition
km/h
Visibility Definition
km
Stn Press Definition
kPa
Hmdx Definition


Wind Chill Definition


Weather Definition


TIME
00:00 Legend Double Dagger -5.9 -7.3 90 35 36 24.1 99.87   -15 Mainly Clear
01:00 Legend Double Dagger -6.6 -8.0 90 35 34 24.1 99.93   -16 LegendNANA
02:00 Legend Double Dagger -7.1 -8.6 89 34 34 24.1 99.99   -16 LegendNANA
03:00 Legend Double Dagger -7.1 -8.5 90 34 33 24.1 100.02   -16 Mainly Clear
04:00 Legend Double Dagger -7.0 -8.4 90 34 33 24.1 100.08   -16 LegendNANA
05:00 Legend Double Dagger -8.2 -9.4 91 34 29 24.1 100.12   -17 LegendNANA
06:00 Legend Double Dagger -8.0 -9.4 90 33 33 24.1 100.19   -17 Clear
07:00 Legend Double Dagger -8.2 -9.6 90 33 29 24.1 100.22   -17 LegendNANA
08:00 Legend Double Dagger -7.3 -9.0 88 34 36 24.1 100.26   -17 LegendNANA
09:00 Legend Double Dagger -6.9 -8.7 87 35 39 24.1 100.31   -17 Mainly Clear
10:00 Legend Double Dagger -6.7 -8.5 87 35 34 24.1 100.35   -16 LegendNANA
11:00 Legend Double Dagger -6.0 -8.0 86 35 31 24.1 100.44   -14 LegendNANA
12:00 Legend Double Dagger -5.4 -7.4 86 34 20 24.1 100.52   -12 Mostly Cloudy
13:00 Legend Double Dagger -4.6 -6.4 87 34 18 24.1 100.54   -11 LegendNANA
14:00 Legend Double Dagger -4.4 -6.4 86 36 25 24.1 100.59   -12 LegendNANA
15:00 Legend Double Dagger -4.6 -6.4 87 34 20 24.1 100.65   -11 Mostly Cloudy
16:00 Legend Double Dagger -5.2 -6.7 89 34 17 24.1 100.70   -11 LegendNANA
17:00 Legend Double Dagger -6.2 -7.4 91 35 22 24.1 100.74   -13 LegendNANA
18:00 Legend Double Dagger -6.4 -7.5 92 35 19 24.1 100.77   -13 Mainly Clear
19:00 Legend Double Dagger -6.6 -7.7 92 34 21 24.1 100.81   -14 LegendNANA
20:00 Legend Double Dagger -7.0 -8.1 92 34 15 24.1 100.83   -13 LegendNANA
21:00 Legend Double Dagger -6.7 -7.8 92 35 18 24.1 100.84   -13 Mainly Clear
22:00 Legend Double Dagger -7.1 -8.1 93 34 17 24.1 100.85   -14 LegendNANA
23:00 Legend Double Dagger -7.6 -8.5 93 34 17 24.1 100.86   -14 LegendNANA

Notes on Data Quality.

Legend

  • E = Estimated
  • M = Missing
  • NA = Not Available
  • ‡ = Partner data that is not subject to review by the National Climate Archives
Date modified: